Time,TemperatureF,DewpointF,PressureIn,WindDirection,WindDirectionDegrees,WindSpeedMPH,WindSpeedGustMPH,Humidity,HourlyPrecipIn,Conditions,Clouds,dailyrainin,SoftwareType,DateUTC
2013-03-30 00:02:00,48.4,41.5,30.28,North,-999,0.0,0.0,77,0.00,,,0.01,pywws,2013-03-30 07:02:00,
2013-03-30 00:07:00,46.9,40.8,30.28,North,-999,0.0,0.0,79,0.00,,,0.00,pywws,2013-03-30 07:07:00,
2013-03-30 00:12:00,46.6,40.4,30.28,North,-999,0.0,0.0,79,0.00,,,0.00,pywws,2013-03-30 07:12:00,
2013-03-30 00:17:00,46.4,40.2,30.28,North,-999,0.0,0.0,79,0.00,,,0.00,pywws,2013-03-30 07:17:00,
2013-03-30 00:22:00,46.0,40.5,30.28,North,-999,0.0,0.0,81,0.00,,,0.00,pywws,2013-03-30 07:22:00,
2013-03-30 00:27:00,45.9,40.4,30.28,North,-999,0.0,0.0,81,0.00,,,0.00,pywws,2013-03-30 07:27:00,
2013-03-30 00:32:00,45.5,40.0,30.28,North,-999,0.0,0.0,81,0.00,,,0.00,pywws,2013-03-30 07:32:00,
2013-03-30 00:37:00,45.3,39.8,30.28,North,-999,0.0,0.0,81,0.00,,,0.00,pywws,2013-03-30 07:37:00,
2013-03-30 00:42:00,45.0,39.5,30.28,North,-999,0.0,0.0,81,0.00,,,0.00,pywws,2013-03-30 07:42:00,
2013-03-30 00:47:00,44.8,39.3,30.28,North,-999,0.0,0.0,81,0.00,,,0.00,pywws,2013-03-30 07:47:00,
2013-03-30 00:52:00,44.4,39.3,30.28,North,-999,0.0,0.0,82,0.00,,,0.00,pywws,2013-03-30 07:52:00,
2013-03-30 00:57:00,43.7,38.6,30.28,North,-999,0.0,0.0,82,0.00,,,0.00,pywws,2013-03-30 07:57:00,
2013-03-30 01:02:00,43.7,38.6,30.29,North,-999,0.0,0.0,82,0.00,,,0.00,pywws,2013-03-30 08:02:00,
2013-03-30 01:07:00,43.3,38.2,30.29,North,-999,0.0,0.0,82,0.00,,,0.00,pywws,2013-03-30 08:07:00,
2013-03-30 01:12:00,43.2,38.0,30.28,North,-999,0.0,0.0,82,0.00,,,0.00,pywws,2013-03-30 08:12:00,
2013-03-30 01:17:00,43.0,37.9,30.29,North,-999,0.0,0.0,82,0.00,,,0.00,pywws,2013-03-30 08:17:00,
2013-03-30 01:22:00,42.6,37.8,30.29,North,-999,0.0,0.0,83,0.00,,,0.00,pywws,2013-03-30 08:22:00,
2013-03-30 01:27:00,42.4,37.6,30.29,North,-999,0.0,0.0,83,0.00,,,0.00,pywws,2013-03-30 08:27:00,
2013-03-30 01:32:00,42.1,37.3,30.29,North,-999,0.0,0.0,83,0.00,,,0.00,pywws,2013-03-30 08:32:00,
2013-03-30 01:37:00,42.1,37.3,30.29,North,-999,0.0,0.0,83,0.00,,,0.00,pywws,2013-03-30 08:37:00,
2013-03-30 01:42:00,41.7,36.9,30.29,North,-999,0.0,0.0,83,0.00,,,0.00,pywws,2013-03-30 08:42:00,
2013-03-30 01:47:00,41.5,36.8,30.29,North,-999,0.0,0.0,83,0.00,,,0.00,pywws,2013-03-30 08:47:00,
2013-03-30 02:02:00,41.4,36.6,30.29,North,-999,0.0,0.0,83,0.00,,,0.00,pywws,2013-03-30 09:02:00,
2013-03-30 02:07:00,40.6,36.2,30.29,North,-999,0.0,0.0,84,0.00,,,0.00,pywws,2013-03-30 09:07:00,
2013-03-30 02:12:00,40.6,36.2,30.29,North,-999,0.0,0.0,84,0.00,,,0.00,pywws,2013-03-30 09:12:00,
2013-03-30 02:17:00,40.3,36.1,30.29,North,-999,0.0,0.0,85,0.00,,,0.00,pywws,2013-03-30 09:17:00,
2013-03-30 02:22:00,40.1,36.0,30.29,North,-999,0.0,0.0,85,0.00,,,0.00,pywws,2013-03-30 09:22:00,
2013-03-30 02:27:00,39.9,35.8,30.29,North,-999,0.0,0.0,85,0.00,,,0.00,pywws,2013-03-30 09:27:00,
2013-03-30 02:32:00,39.7,35.6,30.29,North,-999,0.0,0.0,85,0.00,,,0.00,pywws,2013-03-30 09:32:00,
2013-03-30 02:37:00,39.6,35.4,30.29,North,-999,0.0,0.0,85,0.00,,,0.00,pywws,2013-03-30 09:37:00,
2013-03-30 02:42:00,39.4,35.3,30.29,North,-999,0.0,0.0,85,0.00,,,0.00,pywws,2013-03-30 09:42:00,
2013-03-30 02:47:00,39.2,35.1,30.29,North,-999,0.0,0.0,85,0.00,,,0.00,pywws,2013-03-30 09:47:00,
2013-03-30 03:02:00,39.2,35.1,30.29,North,-999,0.0,0.0,85,0.00,,,0.00,pywws,2013-03-30 10:02:00,
2013-03-30 03:07:00,38.8,35.0,30.29,North,-999,0.0,0.0,86,0.00,,,0.00,pywws,2013-03-30 10:07:00,
2013-03-30 03:12:00,38.7,34.8,30.29,North,-999,0.0,0.0,86,0.00,,,0.00,pywws,2013-03-30 10:12:00,
2013-03-30 03:17:00,38.5,34.7,30.29,North,-999,0.0,0.0,86,0.00,,,0.00,pywws,2013-03-30 10:17:00,
2013-03-30 03:22:00,38.3,34.8,30.29,North,-999,0.0,0.0,87,0.00,,,0.00,pywws,2013-03-30 10:22:00,
2013-03-30 03:27:00,38.3,34.8,30.29,North,-999,0.0,0.0,87,0.00,,,0.00,pywws,2013-03-30 10:27:00,
2013-03-30 03:32:00,37.9,34.4,30.29,North,-999,0.0,0.0,87,0.00,,,0.00,pywws,2013-03-30 10:32:00,
2013-03-30 03:37:00,37.6,33.8,30.29,North,-999,0.0,0.0,86,0.00,,,0.00,pywws,2013-03-30 10:37:00,
2013-03-30 03:42:00,37.6,33.8,30.29,North,-999,0.0,0.0,86,0.00,,,0.00,pywws,2013-03-30 10:42:00,
2013-03-30 03:47:00,37.4,33.6,30.29,North,-999,0.0,0.0,86,0.00,,,0.00,pywws,2013-03-30 10:47:00,
2013-03-30 04:02:00,37.4,33.6,30.29,North,-999,0.0,0.0,86,0.00,,,0.00,pywws,2013-03-30 11:02:00,
2013-03-30 04:07:00,36.9,31.9,30.29,North,-999,0.0,0.0,82,0.00,,,0.00,pywws,2013-03-30 11:07:00,
2013-03-30 04:12:00,36.9,31.9,30.29,North,-999,0.0,0.0,82,0.00,,,0.00,pywws,2013-03-30 11:12:00,
2013-03-30 04:17:00,36.7,31.7,30.29,North,-999,0.0,0.0,82,0.00,,,0.00,pywws,2013-03-30 11:17:00,
2013-03-30 04:22:00,36.7,32.0,30.29,North,-999,0.0,0.0,83,0.00,,,0.00,pywws,2013-03-30 11:22:00,
2013-03-30 04:27:00,36.5,31.8,30.29,North,-999,0.0,0.0,83,0.00,,,0.00,pywws,2013-03-30 11:27:00,
2013-03-30 04:32:00,36.3,31.7,30.29,North,-999,0.0,0.0,83,0.00,,,0.00,pywws,2013-03-30 11:32:00,
2013-03-30 04:37:00,36.3,31.7,30.29,North,-999,0.0,0.0,83,0.00,,,0.00,pywws,2013-03-30 11:37:00,
2013-03-30 04:42:00,36.0,31.3,30.28,North,-999,0.0,0.0,83,0.00,,,0.00,pywws,2013-03-30 11:42:00,
2013-03-30 04:47:00,35.8,31.1,30.28,North,-999,0.0,0.0,83,0.00,,,0.00,pywws,2013-03-30 11:47:00,
2013-03-30 05:02:00,35.8,31.1,30.28,North,-999,0.0,0.0,83,0.00,,,0.00,pywws,2013-03-30 12:02:00,
2013-03-30 05:07:00,36.0,31.3,30.28,North,-999,0.0,0.0,83,0.00,,,0.00,pywws,2013-03-30 12:07:00,
2013-03-30 05:12:00,35.8,31.1,30.28,North,-999,0.0,0.0,83,0.00,,,0.00,pywws,2013-03-30 12:12:00,
2013-03-30 05:17:00,35.8,31.1,30.28,North,-999,0.0,0.0,83,0.00,,,0.00,pywws,2013-03-30 12:17:00,
2013-03-30 05:22:00,35.2,30.9,30.28,North,-999,0.0,0.0,84,0.00,,,0.00,pywws,2013-03-30 12:22:00,
2013-03-30 05:27:00,35.2,30.9,30.28,North,-999,0.0,0.0,84,0.00,,,0.00,pywws,2013-03-30 12:27:00,
2013-03-30 05:32:00,35.2,30.9,30.28,North,-999,0.0,0.0,84,0.00,,,0.00,pywws,2013-03-30 12:32:00,
2013-03-30 05:37:00,35.2,30.9,30.28,North,-999,0.0,0.0,84,0.00,,,0.00,pywws,2013-03-30 12:37:00,
2013-03-30 05:42:00,35.1,30.7,30.28,North,-999,0.0,0.0,84,0.00,,,0.00,pywws,2013-03-30 12:42:00,
2013-03-30 05:47:00,35.2,30.9,30.28,North,-999,0.0,0.0,84,0.00,,,0.00,pywws,2013-03-30 12:47:00,
2013-03-30 06:02:00,35.4,31.1,30.28,North,-999,0.0,0.0,84,0.00,,,0.00,pywws,2013-03-30 13:02:00,
2013-03-30 06:07:00,34.5,30.2,30.28,North,-999,0.0,0.0,84,0.00,,,0.00,pywws,2013-03-30 13:07:00,
2013-03-30 06:12:00,34.5,30.2,30.28,North,-999,0.0,0.0,84,0.00,,,0.00,pywws,2013-03-30 13:12:00,
2013-03-30 06:17:00,34.7,30.4,30.28,North,-999,0.0,0.0,84,0.00,,,0.00,pywws,2013-03-30 13:17:00,
2013-03-30 06:22:00,34.7,30.4,30.29,North,-999,0.0,0.0,84,0.00,,,0.00,pywws,2013-03-30 13:22:00,
2013-03-30 06:27:00,34.7,30.4,30.28,North,-999,0.0,0.0,84,0.00,,,0.00,pywws,2013-03-30 13:27:00,
2013-03-30 06:32:00,34.7,30.4,30.28,North,-999,0.0,0.0,84,0.00,,,0.00,pywws,2013-03-30 13:32:00,
2013-03-30 06:37:00,34.3,30.0,30.28,North,-999,0.0,0.0,84,0.00,,,0.00,pywws,2013-03-30 13:37:00,
2013-03-30 06:42:00,34.5,30.2,30.29,North,-999,0.0,0.0,84,0.00,,,0.00,pywws,2013-03-30 13:42:00,
2013-03-30 06:47:00,34.5,30.2,30.29,North,-999,0.0,0.0,84,0.00,,,0.00,pywws,2013-03-30 13:47:00,
2013-03-30 07:02:00,34.3,30.0,30.28,North,-999,0.0,0.0,84,0.00,,,0.00,pywws,2013-03-30 14:02:00,
2013-03-30 07:07:00,34.0,29.7,30.29,North,-999,0.0,0.0,84,0.00,,,0.00,pywws,2013-03-30 14:07:00,
2013-03-30 07:12:00,34.3,30.0,30.29,North,-999,0.0,0.0,84,0.00,,,0.00,pywws,2013-03-30 14:12:00,
2013-03-30 07:17:00,34.7,30.7,30.29,North,-999,0.0,0.0,85,0.00,,,0.00,pywws,2013-03-30 14:17:00,
2013-03-30 07:22:00,35.2,31.2,30.29,North,-999,0.0,0.0,85,0.00,,,0.00,pywws,2013-03-30 14:22:00,
2013-03-30 07:27:00,36.9,32.8,30.29,North,-999,0.0,0.0,85,0.00,,,0.00,pywws,2013-03-30 14:27:00,
2013-03-30 07:32:00,37.4,34.5,30.29,North,-999,0.0,0.0,89,0.00,,,0.00,pywws,2013-03-30 14:32:00,
2013-03-30 07:37:00,37.4,34.5,30.29,North,-999,0.0,0.0,89,0.00,,,0.00,pywws,2013-03-30 14:37:00,
2013-03-30 07:42:00,37.6,34.6,30.29,North,-999,0.0,0.0,89,0.00,,,0.00,pywws,2013-03-30 14:42:00,
2013-03-30 07:47:00,37.8,35.1,30.29,North,0,0.7,2.2,90,0.00,,,0.00,pywws,2013-03-30 14:47:00,
2013-03-30 08:02:00,37.9,35.3,30.29,North,0,0.7,0.7,90,0.00,,,0.00,pywws,2013-03-30 15:02:00,
2013-03-30 08:07:00,37.4,34.5,30.29,North,0,0.7,1.6,89,0.00,,,0.00,pywws,2013-03-30 15:07:00,
2013-03-30 08:12:00,37.2,33.1,30.29,North,0,0.7,1.6,85,0.00,,,0.00,pywws,2013-03-30 15:12:00,
2013-03-30 08:17:00,37.2,33.1,30.29,North,-999,0.0,0.0,85,0.00,,,0.00,pywws,2013-03-30 15:17:00,
2013-03-30 08:22:00,37.4,34.5,30.29,North,0,0.7,1.6,89,0.00,,,0.00,pywws,2013-03-30 15:22:00,
2013-03-30 08:27:00,37.4,34.5,30.29,North,-999,0.0,0.0,89,0.00,,,0.00,pywws,2013-03-30 15:27:00,
2013-03-30 08:32:00,37.6,34.6,30.29,North,-999,0.0,0.0,89,0.00,,,0.00,pywws,2013-03-30 15:32:00,
2013-03-30 08:37:00,37.6,34.6,30.29,North,-999,0.0,0.0,89,0.00,,,0.00,pywws,2013-03-30 15:37:00,
2013-03-30 08:42:00,38.1,35.5,30.28,North,-999,0.0,0.0,90,0.00,,,0.00,pywws,2013-03-30 15:42:00,
2013-03-30 08:47:00,38.7,36.0,30.28,North,-999,0.0,0.7,90,0.00,,,0.00,pywws,2013-03-30 15:47:00,
2013-03-30 09:02:00,39.0,36.3,30.28,North,0,0.7,1.6,90,0.00,,,0.00,pywws,2013-03-30 16:02:00,
2013-03-30 09:07:00,39.6,36.6,30.28,North,0,0.7,1.6,89,0.00,,,0.00,pywws,2013-03-30 16:07:00,
2013-03-30 09:12:00,39.9,36.7,30.28,North,0,1.6,2.2,88,0.00,,,0.00,pywws,2013-03-30 16:12:00,
2013-03-30 09:17:00,40.1,36.8,30.28,North,0,1.6,2.2,88,0.00,,,0.00,pywws,2013-03-30 16:17:00,
2013-03-30 09:22:00,40.3,37.0,30.28,East,90,0.7,2.2,88,0.00,,,0.00,pywws,2013-03-30 16:22:00,
2013-03-30 09:27:00,40.6,37.4,30.28,North,0,1.6,2.2,88,0.00,,,0.00,pywws,2013-03-30 16:27:00,
2013-03-30 09:32:00,41.2,37.3,30.27,North,0,1.6,3.1,86,0.00,,,0.00,pywws,2013-03-30 16:32:00,
2013-03-30 09:37:00,41.2,37.3,30.27,North,0,0.7,1.6,86,0.00,,,0.00,pywws,2013-03-30 16:37:00,
2013-03-30 09:42:00,41.4,37.5,30.27,East,90,2.2,3.1,86,0.00,,,0.00,pywws,2013-03-30 16:42:00,
2013-03-30 09:47:00,41.9,37.7,30.27,NE,45,1.6,2.2,85,0.00,,,0.00,pywws,2013-03-30 16:47:00,
2013-03-30 10:02:00,42.4,38.3,30.27,North,0,1.6,2.2,85,0.00,,,0.00,pywws,2013-03-30 17:02:00,
2013-03-30 10:07:00,43.7,38.9,30.27,North,0,2.2,3.1,83,0.00,,,0.00,pywws,2013-03-30 17:07:00,
2013-03-30 10:12:00,43.9,39.1,30.27,North,0,1.6,3.1,83,0.00,,,0.00,pywws,2013-03-30 17:12:00,
2013-03-30 10:17:00,44.8,39.6,30.27,NE,45,2.2,3.1,82,0.00,,,0.00,pywws,2013-03-30 17:17:00,
2013-03-30 10:22:00,45.3,39.8,30.27,East,90,0.7,2.2,81,0.00,,,0.00,pywws,2013-03-30 17:22:00,
2013-03-30 10:27:00,46.2,40.7,30.27,East,90,2.2,3.1,81,0.00,,,0.00,pywws,2013-03-30 17:27:00,
2013-03-30 10:32:00,47.5,41.3,30.26,East,90,2.2,3.8,79,0.00,,,0.00,pywws,2013-03-30 17:32:00,
2013-03-30 10:37:00,47.7,41.1,30.27,East,90,1.6,2.2,78,0.00,,,0.00,pywws,2013-03-30 17:37:00,
2013-03-30 10:42:00,49.5,42.2,30.26,East,90,1.6,3.1,76,0.00,,,0.00,pywws,2013-03-30 17:42:00,
2013-03-30 10:47:00,48.0,41.2,30.26,East,90,0.7,1.6,77,0.00,,,0.00,pywws,2013-03-30 17:47:00,
2013-03-30 11:02:00,49.3,42.0,30.26,East,90,0.7,2.2,76,0.00,,,0.00,pywws,2013-03-30 18:02:00,
2013-03-30 11:07:00,51.4,42.7,30.26,East,90,1.6,3.8,72,0.00,,,0.00,pywws,2013-03-30 18:07:00,
2013-03-30 11:12:00,52.2,42.3,30.26,East,90,3.1,4.5,69,0.00,,,0.00,pywws,2013-03-30 18:12:00,
2013-03-30 11:17:00,52.2,41.9,30.26,SE,135,3.1,4.5,68,0.00,,,0.00,pywws,2013-03-30 18:17:00,
2013-03-30 11:22:00,52.2,41.5,30.26,SE,135,3.1,5.4,67,0.00,,,0.00,pywws,2013-03-30 18:22:00,
2013-03-30 11:27:00,52.2,41.5,30.26,East,90,1.6,3.1,67,0.00,,,0.00,pywws,2013-03-30 18:27:00,
2013-03-30 11:32:00,52.2,41.9,30.26,East,90,3.1,6.0,68,0.00,,,0.00,pywws,2013-03-30 18:32:00,
2013-03-30 11:37:00,53.2,42.6,30.26,East,90,0.7,2.2,67,0.00,,,0.00,pywws,2013-03-30 18:37:00,
2013-03-30 11:42:00,53.6,42.5,30.26,East,90,2.2,3.1,66,0.00,,,0.00,pywws,2013-03-30 18:42:00,
2013-03-30 11:47:00,55.2,43.7,30.26,East,90,5.4,6.0,65,0.00,,,0.00,pywws,2013-03-30 18:47:00,
2013-03-30 12:02:00,55.2,43.3,30.25,East,90,1.6,3.1,64,0.00,,,0.00,pywws,2013-03-30 19:02:00,
2013-03-30 12:07:00,56.3,43.9,30.25,East,90,1.6,2.2,63,0.00,,,0.00,pywws,2013-03-30 19:07:00,
2013-03-30 12:12:00,56.3,43.9,30.25,South,180,4.5,6.9,63,0.00,,,0.00,pywws,2013-03-30 19:12:00,
2013-03-30 12:17:00,56.1,44.1,30.25,East,90,1.6,2.2,64,0.00,,,0.00,pywws,2013-03-30 19:17:00,
2013-03-30 12:22:00,57.4,44.5,30.24,SE,135,4.5,6.0,62,0.00,,,0.00,pywws,2013-03-30 19:22:00,
2013-03-30 12:27:00,57.4,44.0,30.24,NE,45,2.2,3.8,61,0.00,,,0.00,pywws,2013-03-30 19:27:00,
2013-03-30 12:32:00,57.4,44.0,30.24,East,90,1.6,2.2,61,0.00,,,0.00,pywws,2013-03-30 19:32:00,
2013-03-30 12:37:00,57.2,44.7,30.24,West,270,1.6,3.1,63,0.00,,,0.00,pywws,2013-03-30 19:37:00,
2013-03-30 12:42:00,59.0,44.7,30.24,East,90,1.6,3.1,59,0.00,,,0.00,pywws,2013-03-30 19:42:00,
2013-03-30 12:47:00,58.8,45.0,30.24,East,90,0.7,3.1,60,0.00,,,0.00,pywws,2013-03-30 19:47:00,
2013-03-30 13:02:00,60.1,45.7,30.23,South,180,2.2,5.4,59,0.00,,,0.00,pywws,2013-03-30 20:02:00,
2013-03-30 13:07:00,61.5,46.1,30.23,SE,135,2.2,4.5,57,0.00,,,0.00,pywws,2013-03-30 20:07:00,
2013-03-30 13:12:00,61.3,44.5,30.22,East,90,1.6,2.2,54,0.00,,,0.00,pywws,2013-03-30 20:12:00,
2013-03-30 13:17:00,63.1,45.2,30.22,East,90,1.6,3.1,52,0.00,,,0.00,pywws,2013-03-30 20:17:00,
2013-03-30 13:22:00,62.8,44.9,30.22,SE,135,1.6,3.1,52,0.00,,,0.00,pywws,2013-03-30 20:22:00,
2013-03-30 13:27:00,63.5,45.6,30.22,SE,135,3.8,5.4,52,0.00,,,0.00,pywws,2013-03-30 20:27:00,
2013-03-30 13:32:00,63.9,45.9,30.22,South,180,2.2,4.5,52,0.00,,,0.00,pywws,2013-03-30 20:32:00,
2013-03-30 13:37:00,65.7,46.5,30.22,East,90,2.2,3.8,50,0.00,,,0.00,pywws,2013-03-30 20:37:00,
2013-03-30 13:42:00,65.5,46.3,30.22,East,90,0.7,2.2,50,0.00,,,0.00,pywws,2013-03-30 20:42:00,
2013-03-30 13:47:00,64.6,45.5,30.22,South,180,3.8,4.5,50,0.00,,,0.00,pywws,2013-03-30 20:47:00,
2013-03-30 14:02:00,65.7,45.4,30.21,NE,45,3.8,6.9,48,0.00,,,0.00,pywws,2013-03-30 21:02:00,
2013-03-30 14:07:00,65.8,45.6,30.20,South,180,0.7,1.6,48,0.00,,,0.00,pywws,2013-03-30 21:07:00,
2013-03-30 14:12:00,67.3,46.4,30.20,SE,135,1.6,3.1,47,0.00,,,0.00,pywws,2013-03-30 21:12:00,
2013-03-30 14:17:00,65.8,45.6,30.20,East,90,0.7,2.2,48,0.00,,,0.00,pywws,2013-03-30 21:17:00,
2013-03-30 14:22:00,66.4,45.0,30.19,East,90,1.6,2.2,46,0.00,,,0.00,pywws,2013-03-30 21:22:00,
2013-03-30 14:27:00,67.3,46.4,30.20,East,90,1.6,3.1,47,0.00,,,0.00,pywws,2013-03-30 21:27:00,
2013-03-30 14:32:00,67.1,45.6,30.19,East,90,2.2,3.8,46,0.00,,,0.00,pywws,2013-03-30 21:32:00,
2013-03-30 14:37:00,67.1,45.6,30.19,West,270,1.6,3.1,46,0.00,,,0.00,pywws,2013-03-30 21:37:00,
2013-03-30 14:42:00,68.5,46.3,30.19,SE,135,3.1,4.5,45,0.00,,,0.00,pywws,2013-03-30 21:42:00,
2013-03-30 14:47:00,68.7,46.5,30.19,East,90,1.6,2.2,45,0.00,,,0.00,pywws,2013-03-30 21:47:00,
2013-03-30 15:02:00,68.9,46.1,30.19,NE,45,1.6,3.8,44,0.00,,,0.00,pywws,2013-03-30 22:02:00,
2013-03-30 15:07:00,68.9,46.1,30.18,SE,135,0.7,1.6,44,0.00,,,0.00,pywws,2013-03-30 22:07:00,
2013-03-30 15:12:00,68.7,45.9,30.18,SE,135,3.8,5.4,44,0.00,,,0.00,pywws,2013-03-30 22:12:00,
2013-03-30 15:17:00,68.4,45.6,30.18,East,90,2.2,3.8,44,0.00,,,0.00,pywws,2013-03-30 22:17:00,
2013-03-30 15:22:00,68.5,45.8,30.17,SE,135,1.6,3.1,44,0.00,,,0.00,pywws,2013-03-30 22:22:00,
2013-03-30 15:27:00,68.2,45.4,30.17,West,270,1.6,3.1,44,0.00,,,0.00,pywws,2013-03-30 22:27:00,
2013-03-30 15:32:00,69.1,46.2,30.17,East,90,1.6,2.2,44,0.00,,,0.00,pywws,2013-03-30 22:32:00,
2013-03-30 15:37:00,69.3,45.8,30.17,East,90,2.2,3.8,43,0.00,,,0.00,pywws,2013-03-30 22:37:00,
2013-03-30 15:42:00,68.7,45.3,30.16,North,-999,0.0,0.7,43,0.00,,,0.00,pywws,2013-03-30 22:42:00,
2013-03-30 15:47:00,69.3,47.0,30.16,East,90,0.7,1.6,45,0.00,,,0.00,pywws,2013-03-30 22:47:00,
2013-03-30 16:02:00,68.9,45.5,30.16,West,270,0.7,2.2,43,0.00,,,0.00,pywws,2013-03-30 23:02:00,
2013-03-30 16:07:00,68.5,45.8,30.16,South,180,1.6,3.1,44,0.00,,,0.00,pywws,2013-03-30 23:07:00,
2013-03-30 16:12:00,69.1,46.8,30.15,East,90,2.2,3.1,45,0.00,,,0.00,pywws,2013-03-30 23:12:00,
2013-03-30 16:17:00,68.7,45.9,30.15,East,90,3.1,5.4,44,0.00,,,0.00,pywws,2013-03-30 23:17:00,
2013-03-30 16:22:00,68.2,45.4,30.15,East,90,0.7,3.1,44,0.00,,,0.00,pywws,2013-03-30 23:22:00,
2013-03-30 16:27:00,68.5,45.8,30.15,North,-999,0.0,0.7,44,0.00,,,0.00,pywws,2013-03-30 23:27:00,
2013-03-30 16:32:00,68.0,45.3,30.15,West,270,1.6,3.1,44,0.00,,,0.00,pywws,2013-03-30 23:32:00,
2013-03-30 16:37:00,68.2,45.4,30.15,West,270,1.6,3.1,44,0.00,,,0.00,pywws,2013-03-30 23:37:00,
2013-03-30 16:42:00,68.2,45.4,30.15,East,90,0.7,1.6,44,0.00,,,0.00,pywws,2013-03-30 23:42:00,
2013-03-30 16:47:00,68.0,45.3,30.15,East,90,1.6,3.1,44,0.00,,,0.00,pywws,2013-03-30 23:47:00,
2013-03-30 17:02:00,68.0,45.3,30.14,North,-999,0.0,0.7,44,0.00,,,0.00,pywws,2013-03-31 00:02:00,
2013-03-30 17:07:00,67.8,45.7,30.14,SE,135,1.6,2.2,45,0.00,,,0.00,pywws,2013-03-31 00:07:00,
2013-03-30 17:12:00,68.5,46.3,30.14,North,0,0.7,2.2,45,0.00,,,0.00,pywws,2013-03-31 00:12:00,
2013-03-30 17:17:00,68.2,45.4,30.14,East,90,1.6,3.1,44,0.00,,,0.00,pywws,2013-03-31 00:17:00,
2013-03-30 17:22:00,68.0,44.7,30.14,North,-999,0.0,0.0,43,0.00,,,0.00,pywws,2013-03-31 00:22:00,
2013-03-30 17:27:00,68.0,45.3,30.13,North,-999,0.0,1.6,44,0.00,,,0.00,pywws,2013-03-31 00:27:00,
2013-03-30 17:32:00,67.3,45.2,30.13,North,-999,0.0,0.7,45,0.00,,,0.00,pywws,2013-03-31 00:32:00,
2013-03-30 17:37:00,67.6,46.1,30.13,North,-999,0.0,0.0,46,0.00,,,0.00,pywws,2013-03-31 00:37:00,
2013-03-30 17:42:00,67.3,46.4,30.13,North,-999,0.0,0.0,47,0.00,,,0.00,pywws,2013-03-31 00:42:00,
2013-03-30 17:47:00,67.1,46.7,30.13,North,0,0.7,2.2,48,0.00,,,0.00,pywws,2013-03-31 00:47:00,
2013-03-30 18:02:00,67.1,45.0,30.13,West,270,0.7,1.6,45,0.00,,,0.00,pywws,2013-03-31 01:02:00,
2013-03-30 18:07:00,64.9,45.8,30.12,East,90,0.7,2.2,50,0.00,,,0.00,pywws,2013-03-31 01:07:00,
2013-03-30 18:12:00,64.9,45.3,30.12,East,90,1.6,2.2,49,0.00,,,0.00,pywws,2013-03-31 01:12:00,
2013-03-30 18:17:00,64.8,45.1,30.12,East,90,0.7,2.2,49,0.00,,,0.00,pywws,2013-03-31 01:17:00,
2013-03-30 18:22:00,64.0,45.5,30.12,North,0,1.6,3.1,51,0.00,,,0.00,pywws,2013-03-31 01:22:00,
2013-03-30 18:27:00,63.7,45.2,30.12,East,90,0.7,2.2,51,0.00,,,0.00,pywws,2013-03-31 01:27:00,
2013-03-30 18:32:00,63.1,45.2,30.12,East,90,0.7,1.6,52,0.00,,,0.00,pywws,2013-03-31 01:32:00,
2013-03-30 18:37:00,62.8,45.4,30.12,East,90,2.2,4.5,53,0.00,,,0.00,pywws,2013-03-31 01:37:00,
2013-03-30 18:42:00,62.4,45.6,30.12,East,90,1.6,3.1,54,0.00,,,0.00,pywws,2013-03-31 01:42:00,
2013-03-30 18:47:00,62.1,45.7,30.12,East,90,0.7,2.2,55,0.00,,,0.00,pywws,2013-03-31 01:47:00,
2013-03-30 19:02:00,62.1,45.7,30.12,North,0,0.7,1.6,55,0.00,,,0.00,pywws,2013-03-31 02:02:00,
2013-03-30 19:07:00,61.5,45.2,30.11,NE,45,2.2,3.8,55,0.00,,,0.00,pywws,2013-03-31 02:07:00,
2013-03-30 19:12:00,62.1,45.7,30.11,East,90,2.2,3.8,55,0.00,,,0.00,pywws,2013-03-31 02:12:00,
2013-03-30 19:17:00,61.5,45.2,30.11,East,90,3.1,4.5,55,0.00,,,0.00,pywws,2013-03-31 02:17:00,
2013-03-30 19:22:00,61.5,45.2,30.12,East,90,2.2,4.5,55,0.00,,,0.00,pywws,2013-03-31 02:22:00,
2013-03-30 19:27:00,60.8,45.0,30.12,North,0,1.6,3.1,56,0.00,,,0.00,pywws,2013-03-31 02:27:00,
2013-03-30 19:32:00,60.1,45.3,30.11,East,90,1.6,3.1,58,0.00,,,0.00,pywws,2013-03-31 02:32:00,
2013-03-30 19:37:00,59.7,45.4,30.11,East,90,1.6,3.1,59,0.00,,,0.00,pywws,2013-03-31 02:37:00,
2013-03-30 19:42:00,59.0,45.1,30.11,East,90,1.6,2.2,60,0.00,,,0.00,pywws,2013-03-31 02:42:00,
2013-03-30 19:47:00,59.4,45.0,30.11,North,0,1.6,3.1,59,0.00,,,0.00,pywws,2013-03-31 02:47:00,
2013-03-30 19:52:00,58.6,45.7,30.12,East,90,0.7,1.6,62,0.00,,,0.00,pywws,2013-03-31 02:52:00,
2013-03-30 19:57:00,57.9,45.4,30.12,NE,45,1.6,3.1,63,0.00,,,0.00,pywws,2013-03-31 02:57:00,
2013-03-30 20:02:00,57.7,45.2,30.11,NE,45,1.6,3.1,63,0.00,,,0.00,pywws,2013-03-31 03:02:00,
2013-03-30 20:07:00,57.4,45.3,30.12,East,90,0.7,2.2,64,0.00,,,0.00,pywws,2013-03-31 03:07:00,
2013-03-30 20:12:00,57.2,45.1,30.12,North,0,0.7,2.2,64,0.00,,,0.00,pywws,2013-03-31 03:12:00,
2013-03-30 20:17:00,57.4,45.3,30.12,East,90,1.6,3.1,64,0.00,,,0.00,pywws,2013-03-31 03:17:00,
2013-03-30 20:22:00,57.2,45.1,30.12,North,0,1.6,3.1,64,0.00,,,0.00,pywws,2013-03-31 03:22:00,
2013-03-30 20:27:00,57.2,45.1,30.12,North,0,1.6,3.1,64,0.00,,,0.00,pywws,2013-03-31 03:27:00,
2013-03-30 20:32:00,56.5,44.9,30.12,East,90,1.6,3.1,65,0.00,,,0.00,pywws,2013-03-31 03:32:00,
2013-03-30 20:37:00,56.5,44.9,30.12,North,0,1.6,3.1,65,0.00,,,0.00,pywws,2013-03-31 03:37:00,
2013-03-30 20:42:00,56.7,45.0,30.12,East,90,2.2,3.1,65,0.00,,,0.00,pywws,2013-03-31 03:42:00,
2013-03-30 20:47:00,56.5,44.9,30.13,NE,45,1.6,3.1,65,0.00,,,0.00,pywws,2013-03-31 03:47:00,
2013-03-30 20:52:00,56.3,44.7,30.12,North,0,2.2,3.8,65,0.00,,,0.00,pywws,2013-03-31 03:52:00,
2013-03-30 20:57:00,56.3,45.1,30.12,NE,45,2.2,3.1,66,0.00,,,0.00,pywws,2013-03-31 03:57:00,
2013-03-30 21:02:00,56.1,44.9,30.12,East,90,3.1,3.8,66,0.00,,,0.00,pywws,2013-03-31 04:02:00,
2013-03-30 21:07:00,56.1,44.9,30.13,North,0,1.6,3.1,66,0.00,,,0.00,pywws,2013-03-31 04:07:00,
2013-03-30 21:12:00,56.5,44.9,30.12,NE,45,1.6,2.2,65,0.00,,,0.00,pywws,2013-03-31 04:12:00,
2013-03-30 21:17:00,55.8,44.6,30.12,East,90,1.6,3.1,66,0.00,,,0.00,pywws,2013-03-31 04:17:00,
2013-03-30 21:22:00,55.0,43.9,30.13,South,180,2.2,3.1,66,0.00,,,0.00,pywws,2013-03-31 04:22:00,
2013-03-30 21:27:00,55.0,43.9,30.12,North,0,1.6,3.1,66,0.00,,,0.00,pywws,2013-03-31 04:27:00,
2013-03-30 21:32:00,54.7,43.9,30.12,North,0,1.6,2.2,67,0.00,,,0.00,pywws,2013-03-31 04:32:00,
2013-03-30 21:37:00,54.7,43.9,30.13,North,0,1.6,3.1,67,0.00,,,0.00,pywws,2013-03-31 04:37:00,
2013-03-30 21:42:00,54.5,44.2,30.13,North,0,2.2,3.1,68,0.00,,,0.00,pywws,2013-03-31 04:42:00,
2013-03-30 21:47:00,54.5,44.2,30.13,SE,135,2.2,3.1,68,0.00,,,0.00,pywws,2013-03-31 04:47:00,
2013-03-30 21:52:00,54.5,44.2,30.13,East,90,0.7,1.6,68,0.00,,,0.00,pywws,2013-03-31 04:52:00,
2013-03-30 21:57:00,55.4,44.6,30.13,North,-999,0.0,0.7,67,0.00,,,0.00,pywws,2013-03-31 04:57:00,
2013-03-30 22:02:00,54.7,43.9,30.13,North,-999,0.0,1.6,67,0.00,,,0.00,pywws,2013-03-31 05:02:00,
2013-03-30 22:07:00,54.7,43.9,30.13,East,90,2.2,3.8,67,0.00,,,0.00,pywws,2013-03-31 05:07:00,
2013-03-30 22:12:00,54.7,43.9,30.13,NE,45,1.6,2.2,67,0.00,,,0.00,pywws,2013-03-31 05:12:00,
2013-03-30 22:17:00,54.0,43.6,30.13,North,-999,0.0,0.0,68,0.00,,,0.00,pywws,2013-03-31 05:17:00,
2013-03-30 22:22:00,52.5,43.8,30.12,North,0,0.7,1.6,72,0.00,,,0.00,pywws,2013-03-31 05:22:00,
2013-03-30 22:27:00,52.3,43.6,30.12,North,0,1.6,2.2,72,0.00,,,0.00,pywws,2013-03-31 05:27:00,
2013-03-30 22:32:00,52.5,43.8,30.13,NE,45,1.6,2.2,72,0.00,,,0.00,pywws,2013-03-31 05:32:00,
2013-03-30 22:37:00,52.7,43.9,30.12,East,90,0.7,2.2,72,0.00,,,0.00,pywws,2013-03-31 05:37:00,
2013-03-30 22:42:00,52.3,43.6,30.13,North,0,1.6,2.2,72,0.00,,,0.00,pywws,2013-03-31 05:42:00,
2013-03-30 22:47:00,52.3,43.6,30.12,North,0,1.6,2.2,72,0.00,,,0.00,pywws,2013-03-31 05:47:00,
2013-03-30 22:52:00,52.3,43.6,30.12,East,90,1.6,2.2,72,0.00,,,0.00,pywws,2013-03-31 05:52:00,
2013-03-30 22:57:00,52.2,43.4,30.12,North,-999,0.0,0.7,72,0.00,,,0.00,pywws,2013-03-31 05:57:00,
2013-03-30 23:02:00,51.6,43.6,30.12,East,90,0.7,1.6,74,0.00,,,0.00,pywws,2013-03-31 06:02:00,
2013-03-30 23:07:00,51.6,43.6,30.12,NE,45,1.6,2.2,74,0.00,,,0.00,pywws,2013-03-31 06:07:00,
2013-03-30 23:12:00,51.3,43.3,30.12,East,90,0.7,2.2,74,0.00,,,0.00,pywws,2013-03-31 06:12:00,
2013-03-30 23:17:00,51.6,43.6,30.12,North,0,1.6,2.2,74,0.00,,,0.00,pywws,2013-03-31 06:17:00,
2013-03-30 23:22:00,50.7,42.7,30.12,North,-999,0.0,1.6,74,0.00,,,0.00,pywws,2013-03-31 06:22:00,
2013-03-30 23:27:00,50.7,42.7,30.12,North,-999,0.0,0.7,74,0.00,,,0.00,pywws,2013-03-31 06:27:00,
2013-03-30 23:32:00,50.7,43.1,30.11,North,0,0.7,1.6,75,0.00,,,0.00,pywws,2013-03-31 06:32:00,
2013-03-30 23:37:00,50.7,43.1,30.11,North,-999,0.0,0.7,75,0.00,,,0.00,pywws,2013-03-31 06:37:00,
2013-03-30 23:42:00,49.8,42.6,30.11,NE,45,0.7,2.2,76,0.00,,,0.00,pywws,2013-03-31 06:42:00,
2013-03-30 23:47:00,50.9,43.3,30.11,North,0,0.7,2.2,75,0.00,,,0.00,pywws,2013-03-31 06:47:00,
2013-03-30 23:52:00,50.2,42.6,30.11,NE,45,1.6,2.2,75,0.00,,,0.00,pywws,2013-03-31 06:52:00,
2013-03-30 23:57:00,50.7,43.1,30.11,NE,45,1.6,2.2,75,0.00,,,0.00,pywws,2013-03-31 06:57:00,